Flag for Israel Weather past 2 weeks in Netanya, Israel

Now
84 °F

Passing clouds.


Feels Like: 87 °F
Forecast: 74 / 87 °F
Wind: 6 mph from Northwest

Location: Dov Airport

Current Time: Aug 21, 2014 at 11:44:31 AM

Latest Report: Aug 21, 2014 at 10:50 AM


Visibility: N/A

Pressure: 29.89 "Hg

Humidity: 58%

Dew point: 68 °F

Location of NetanyaLocation

Historic Weather in Netanya — Graph

°F

Netanya temperature yesterday

Maximum temperature yesterday: 88 °F (at 2:50 PM)
Minimum temperature yesterday: 77 °F (at 5:50 AM)
Average temperature yesterday: 83 °F

Past Weeks' High & Low Weather Summary

 TemperatureHumidityPressure
High90 °F (Aug 6, 11:50 AM)89% (Aug 14, 4:50 AM)29.92 "Hg (Aug 14, 4:50 AM)
Low77 °F (Aug 7, 4:50 AM)55% (Aug 21, 8:50 AM)29.59 "Hg (Aug 17, 3:50 PM)
Average84 °F70%29.75 "Hg
* Reported Aug 6 10:50 AM — Aug 21 10:50 AM, Netanya, Weather by CustomWeather, © 2014

Note: Actual official high and low records may vary slightly from our data, if they occured in-between our weather recording intervals... More about our weather records

Advertising

Netanya weather history for previous 24 hours

 ConditionsComfort  
Time TempWeatherWind HumidityBarometerVisibility
10:50 AM
Aug 21
84 °FPassing clouds.6 mph58%29.89 "HgN/A
9:50 AM84 °FScattered clouds.3 mph58%29.89 "HgN/A
8:50 AM86 °FScattered clouds.2 mph55%29.89 "HgN/A
7:50 AM81 °FScattered clouds.5 mph66%29.89 "HgN/A
6:50 AM77 °FPassing clouds.3 mph74%29.89 "HgN/A
5:50 AM77 °FPassing clouds.5 mph74%29.89 "HgN/A
4:50 AM77 °FPassing clouds.6 mph74%29.86 "HgN/A
10:50 PM
Aug 20
81 °FClear.8 mph70%29.89 "Hg10 mi
9:50 PM82 °FClear.7 mph62%29.89 "Hg10 mi
8:50 PM82 °FClear.8 mph66%29.89 "Hg10 mi
7:50 PM82 °FSunny.9 mph66%29.86 "Hg10 mi
6:50 PM84 °FSunny.10 mph62%29.86 "Hg10 mi
5:50 PM84 °FSunny.12 mph62%29.86 "Hg10 mi
4:50 PM86 °FPassing clouds.12 mph62%29.86 "HgN/A
3:50 PM86 °FSunny.12 mph62%29.86 "Hg10 mi
2:50 PM88 °FSunny.12 mph59%29.86 "Hg10 mi
1:50 PM86 °FSunny.12 mph59%29.89 "Hg10 mi
Weather by CustomWeather, © 2014

See weather overviewHow to use our weather pages